TimeEST,TemperatureF,Dew PointF,Humidity,Sea Level PressureIn,VisibilityMPH,Wind Direction,Wind SpeedMPH,Gust SpeedMPH,PrecipitationIn,Events,Conditions,WindDirDegrees,DateUTC
12:53 AM,10.9,3.0,70,30.20,10.0,SW,11.5,19.6,N/A,,Overcast,220,2013-02-02 05:53:00
1:53 AM,12.0,3.9,70,30.18,10.0,SSW,12.7,-,N/A,,Overcast,210,2013-02-02 06:53:00
2:53 AM,12.0,5.0,73,30.17,10.0,SW,9.2,18.4,N/A,,Overcast,220,2013-02-02 07:53:00
3:53 AM,12.2,6.8,79,30.09,4.0,SW,10.4,-,N/A,Snow,Light Snow,220,2013-02-02 08:53:00
4:53 AM,12.9,7.0,77,30.12,5.0,SSW,8.1,-,0.00,Snow,Light Snow,200,2013-02-02 09:53:00
5:02 AM,12.2,6.8,79,30.06,2.0,SSW,8.1,-,0.00,Snow,Light Snow,210,2013-02-02 10:02:00
5:09 AM,12.2,8.6,85,30.06,1.5,SSW,6.9,-,0.00,Snow,Light Snow,210,2013-02-02 10:09:00
5:29 AM,12.2,8.6,85,30.05,1.0,SSW,8.1,-,0.00,Snow,Light Snow,200,2013-02-02 10:29:00
5:53 AM,12.9,9.0,84,30.09,1.0,SSW,8.1,-,0.00,Snow,Light Snow,200,2013-02-02 10:53:00
6:23 AM,12.2,8.6,85,30.03,2.0,SSW,8.1,-,0.00,Snow,Light Snow,210,2013-02-02 11:23:00
6:53 AM,12.2,8.6,85,30.02,2.0,SSW,5.8,-,N/A,Snow,Light Snow,200,2013-02-02 11:53:00
7:40 AM,14.0,10.4,86,30.01,2.5,SSW,8.1,-,0.00,Snow,Light Snow,200,2013-02-02 12:40:00
7:53 AM,14.0,10.0,84,30.07,2.5,South,8.1,-,0.00,Snow,Light Snow,190,2013-02-02 12:53:00
8:00 AM,14.0,10.4,86,30.01,3.0,South,8.1,-,0.00,Snow,Light Snow,190,2013-02-02 13:00:00
8:53 AM,15.1,10.0,80,30.06,8.0,SSW,9.2,-,0.00,Snow,Light Snow,200,2013-02-02 13:53:00
9:37 AM,15.8,10.4,79,29.98,2.0,SSW,9.2,-,0.00,Snow,Light Snow,200,2013-02-02 14:37:00
9:53 AM,16.0,10.9,81,30.04,2.5,South,6.9,-,0.00,Snow,Light Snow,190,2013-02-02 14:53:00
10:39 AM,17.6,10.4,73,29.97,2.5,SSW,9.2,-,0.00,Snow,Light Snow,200,2013-02-02 15:39:00
10:53 AM,17.1,12.0,81,30.02,2.0,SSW,6.9,-,0.00,Snow,Light Snow,210,2013-02-02 15:53:00
11:53 AM,18.0,12.9,81,30.00,2.0,SSW,4.6,-,0.00,Snow,Light Snow,210,2013-02-02 16:53:00
12:35 PM,19.4,12.2,74,29.93,3.0,West,5.8,-,0.00,Snow,Light Snow,260,2013-02-02 17:35:00
12:53 PM,19.0,12.9,77,29.98,5.0,SW,4.6,-,0.00,Snow,Light Snow,230,2013-02-02 17:53:00
1:22 PM,19.4,14.0,80,29.91,2.0,West,4.6,-,0.00,Snow,Light Snow,260,2013-02-02 18:22:00
1:53 PM,19.9,15.1,81,29.96,2.0,Calm,Calm,-,0.00,Snow,Light Snow,0,2013-02-02 18:53:00
2:08 PM,19.4,15.8,86,29.90,2.0,Calm,Calm,-,0.00,Snow,Light Snow,0,2013-02-02 19:08:00
2:33 PM,19.4,15.8,86,29.90,1.8,West,4.6,-,0.00,Snow,Light Snow,280,2013-02-02 19:33:00
2:46 PM,19.4,15.8,86,29.90,1.2,NNW,4.6,-,0.00,Snow,Light Snow,340,2013-02-02 19:46:00
2:53 PM,19.9,15.1,81,29.96,1.2,NNW,6.9,-,0.00,Snow,Light Snow,330,2013-02-02 19:53:00
3:24 PM,19.4,15.8,86,29.91,1.2,NNW,6.9,-,0.00,Snow,Light Snow,330,2013-02-02 20:24:00
3:53 PM,19.0,12.9,77,29.97,1.5,North,9.2,-,0.00,Snow,Light Snow,350,2013-02-02 20:53:00
4:53 PM,18.0,12.0,78,29.98,1.8,NNW,9.2,-,0.00,Snow,Light Snow,330,2013-02-02 21:53:00
5:26 PM,17.6,10.4,73,29.94,5.0,NNW,5.8,-,0.00,Snow,Light Snow,340,2013-02-02 22:26:00
5:53 PM,17.1,10.0,74,30.00,5.0,NNW,6.9,-,0.00,Snow,Light Snow,340,2013-02-02 22:53:00
6:21 PM,17.6,10.4,73,29.95,3.0,North,9.2,-,0.00,Snow,Light Snow,350,2013-02-02 23:21:00
6:53 PM,15.1,10.0,80,30.02,4.0,NNW,12.7,-,0.00,Snow,Light Snow,340,2013-02-02 23:53:00
7:53 PM,12.0,5.0,73,30.04,10.0,North,9.2,-,0.00,,Overcast,360,2013-02-03 00:53:00
8:33 PM,10.4,3.2,73,29.98,10.0,NNW,4.6,-,N/A,,Mostly Cloudy,340,2013-02-03 01:33:00
8:53 PM,10.0,3.0,73,30.04,10.0,North,3.5,-,N/A,,Mostly Cloudy,350,2013-02-03 01:53:00
9:53 PM,8.1,1.9,76,30.03,10.0,NW,4.6,-,N/A,,Mostly Cloudy,320,2013-02-03 02:53:00
10:53 PM,6.1,1.9,83,30.03,10.0,Calm,Calm,-,N/A,,Scattered Clouds,0,2013-02-03 03:53:00
11:53 PM,5.0,1.0,84,30.02,10.0,Calm,Calm,-,N/A,,Partly Cloudy,0,2013-02-03 04:53:00